Location: *
(50.5492°N, 7.7469°E)
Time: 08:17:02
(UTC+00:00)

H-2A R/B - Pass Details

Date: 21 October 2019
Orbit: 733 x 837 km, 98.3° (Epoch: 18 November)

Event Time Altitude Azimuth Distance (km) Brightness Sun altitude
Exits shadow 20:23:36 29° 280° (W) 1,487 3.8 -37.2°
Drops below altitude 10° 20:27:40 10° 327° (NNW) 2,453 5.2 -37.8°
Sets 20:30:21 0° 339° (NNW) 3,398 6.0 -38.1°
